www.pogodaiklimat.ru

Погода и климат >> Архив погоды >> Индонезия >> Бима


ПОГОДА в Биме

  • Прогноз погоды в Биме
  • Монитор погоды в Биме

АРХИВ ПОГОДЫ в Биме

Время (UTC), дата Ветер
(напр.,м/с)
 
Видим.   Явления Облачность Т
(С)
Тd
(С)
f
(%)
Тe
(С)
Тes
(С)
Комфортность P
(гПа)
Po
(гПа)
Тmin
(С)
Tmax
(С)
R
(мм)
R24
(мм)
S
(см)
15 11.04 штиль 0 6000 м 4/3 450 м
[Cu hum Ci fib]
+26.4 +25.0 92 +38 +38 очень
душно
1010.5 1010.1
18 11.04 штиль 0 6000 м 4/3 450 м
[Cu hum Ci fib]
+26.0 +24.6 92 +37 +37 очень
душно
1009.5 1009.2
21 11.04 штиль 0 5000 м мгла 5/4 450 м
[Cu hum As trans Ci fib]
+25.4 +24.9 97 +36 +36 очень
душно
1009.7 1009.4
00 12.04 штиль 0 5000 м мгла 4/3 450 м
[Cu hum Ci fib]
+26.0 +24.6 92 +37 +41 очень
душно
1011.2 1010.8 +24.6 0.5
03 12.04 С 2 8000 м 6/4 450 м
[Cu hum Ac As Ci fib]
+30.0 +25.2 76 +44 +53 опасность
перегрева
1010.9 1010.6
06 12.04 В 3 8000 м осадки на расстоянии 8/5 450 м
[Cu med, cong As op Ci fib]
+30.8 +24.6 70 +44 +48 опасность
перегрева
1008.3 1008.0
09 12.04 ЮЗ 3 8000 м 8/5 450 м
[Cu med, cong As trans Ci fib]
+30.6 +25.5 74 +45 +45 опасность
перегрева
1009.0 1008.7
12 12.04 штиль 0 5000 м 8/4 450 м
[Cu med, cong As trans Ci fib]
+26.6 +25.3 93 +39 +39 очень
душно
1011.2 1010.9 +32.6 2
15 12.04 штиль 0 5000 м 6/4 450 м
[Cu hum As trans Ci fib]
+26.2 +24.8 92 +37 +37 очень
душно
1011.8 1011.5
18 12.04 штиль 0 4000 м дымка 6/4 450 м
[Cu hum As trans Ci fib]
+25.2 +24.7 97 +35 +35 очень
душно
1010.4 1010.1
00 13.04 штиль 0 3000 м дымка 9/6 420 м
[Cu med, cong As op Ci fib]
+26.0 +24.6 92 +37 +38 очень
душно
1011.7 1011.4 +24.8 2
03 13.04 З 3 10 км 8/4 420 м
[Cu med, cong Ci fib]
+31.2 +25.0 70 +45 +53 опасность
перегрева
1010.6 1010.2
06 13.04 Ю 3 8000 м осадки на расстоянии 9/6 420 м
[Cb cap As op Ci fib]
+31.6 +25.5 70 +46 +49 опасность
перегрева
1008.6 1008.3
09 13.04 штиль 0 8000 м осадки на расстоянии 9/6 450 м
[Cu med, cong As op Ci fib]
+29.4 +25.7 81 +44 +44 опасность
перегрева
1008.9 1008.6
12 13.04 штиль 0 6000 м 6/4 450 м
[Cu hum As trans Ci fib]
+28.2 +26.1 88 +42 +42 опасность
перегрева
1010.8 1010.5 +33.8
15 13.04 штиль 0 6000 м 6/4 450 м
[Cu hum As trans Ci fib]
+27.4 +25.8 91 +41 +41 опасность
перегрева
1011.9 1011.6
18 13.04 штиль 0 6000 м 6/4 450 м
[Cu hum As trans Ci fib]
+26.0 +24.9 94 +37 +37 очень
душно
1011.3 1011.0
21 13.04 штиль 0 5000 м мгла 6/4 450 м
[Cu hum As trans Ci fib]
+25.6 +24.8 95 +36 +36 очень
душно
1010.4 1010.1
00 14.04 штиль 0 5000 м мгла 8/4 420 м
[Cu hum As trans Ci fib]
+26.6 +25.3 93 +39 +41 очень
душно
1012.2 1011.9 +25.0
03 14.04 С 3 7000 м 6/3 450 м
[Cu hum As trans Ci fib]
+31.0 +24.8 70 +44 +53 опасность
перегрева
1011.5 1011.1
06 14.04 В 3 7000 м в посл. час дождь 9/6 420 м
[Cb cap As op Ci fib]
+27.6 +24.9 85 +39 +43 очень
душно
1009.1 1008.8 4
09 14.04 штиль 0 8000 м осадки на расстоянии 9/5 450 м
[Cu med, cong As op Ci fib]
+28.6 +25.7 84 +42 +43 опасность
перегрева
1009.3 1008.9
12 14.04 штиль 0 6000 м 9/5 450 м
[Cu hum As trans Ci fib]
+27.6 +25.7 89 +41 +41 опасность
перегрева
1011.3 1011.0 +33.6
15 14.04 штиль 0 6000 м 9/5 450 м
[Cu hum As trans Ci fib]
+26.6 +25.3 93 +39 +39 очень
душно
1011.6 1011.2
18 14.04 штиль 0 6000 м 6/4 450 м
[Cu hum As trans Ci fib]
+26.0 +24.9 94 +37 +37 очень
душно
1010.2 1009.9
21 14.04 штиль 0 6000 м мгла 6/4 450 м
[Cu hum As trans Ci fib]
+25.6 +24.8 95 +36 +36 очень
душно
1010.3 1010.0
00 15.04 штиль 0 4000 м дымка 8/4 450 м
[Cu hum As trans Ci fib]
+26.0 +25.4 97 +38 +40 очень
душно
1011.6 1011.3 +25.4 4
03 15.04 ЮЗ 3 6000 м 8/4 450 м
[Cu hum As trans Ci fib]
+31.0 +25.9 74 +46 +53 опасность
перегрева
1011.1 1010.7
06 15.04 С 4 6000 м осадки на расстоянии 8/4 450 м
[Cu med, cong As trans Ci fib]
+31.0 +24.8 70 +44 +49 опасность
перегрева
1008.7 1008.4
09 15.04 С 2 8000 м 8/4 450 м
[Cu med, cong As trans Ci fib]
+30.0 +25.5 77 +44 +45 опасность
перегрева
1008.0 1007.7
12 15.04 штиль 0 5000 м осадки на расстоянии 9/6 450 м
[Cu med, cong As op Ci fib]
+27.6 +25.4 88 +40 +40 очень
душно
1010.9 1010.6 +33.8 1
15 15.04 штиль 0 5000 м мгла 9/6 450 м
[Cu med, cong As op Ci fib]
+26.6 +25.3 93 +39 +39 очень
душно
1011.8 1011.5
18 15.04 штиль 0 5000 м мгла 9/6 450 м
[Cu med, cong As op Ci fib]
+25.8 +25.0 95 +37 +37 очень
душно
1010.5 1010.1
21 15.04 штиль 0 5000 м мгла 9/6 450 м
[Cu med, cong As op Ci fib]
+25.0 +24.2 95 +34 +34 очень
душно
1010.3 1010.0
00 16.04 штиль 0 5000 м мгла 8/4 450 м
[Cu hum As trans Ci fib]
+26.2 +25.1 94 +38 +40 очень
душно
1012.1 1011.8 +24.8 1
03 16.04 штиль 0 7000 м 4/4 450 м
[Cu hum Ci fib]
+30.0 +26.0 79 +45 +60 опасность
перегрева
1012.2 1011.9
06 16.04 СЗ 3 8000 м 6/4 450 м
[Cu med, cong As trans Ci fib]
+32.0 +26.2 71 +48 +54 опасность
перегрева
1009.2 1008.9
09 16.04 С 4 8000 м осадки на расстоянии 8/4 420 м
[Cb cap As trans Ci fib]
+31.0 +24.8 70 +44 +45 опасность
перегрева
1008.7 1008.4
12 16.04 ЮВ 2 6000 м 4/4 450 м
[Cu hum Ci fib]
+28.8 +26.1 85 +43 +43 опасность
перегрева
1010.8 1010.4 +32.6
15 16.04 штиль 0 6000 м 4/3 450 м
[Cu hum Ac trans Ci fib]
+27.0 +25.4 91 +39 +39 очень
душно
1012.3 1012.0
18 16.04 штиль 0 6000 м 3/3 450 м
[Cu hum Ci fib]
+25.6 +24.5 94 +36 +36 очень
душно
1010.8 1010.5
21 16.04 штиль 0 6000 м 3/3 450 м
[Cu hum Ci fib]
+24.8 +23.7 94 +34 +34 очень
душно
1010.6 1010.3
00 17.04 штиль 0 7000 м 3/3 450 м
[Cu hum Ci fib]
+26.6 +25.3 93 +39 +43 очень
душно
1012.2 1011.9 +24.6
03 17.04 штиль 0 10 км 4/4 450 м
[Cu hum Ci fib]
+31.6 +24.6 66 +44 +59 опасность
перегрева
1012.1 1011.8
06 17.04 Ю 4 10 км 6/4 450 м
[Cu med, cong As trans Ci fib]
+32.2 +25.2 67 +46 +52 опасность
перегрева
1009.6 1009.3
09 17.04 С 4 6000 м 6/4 450 м
[Cu hum As trans Ci fib]
+31.2 +25.0 70 +45 +45 опасность
перегрева
1009.2 1008.9
12 17.04 ЮВ 4 6000 м 4/3 450 м
[Cu hum As trans Ci fib]
+28.0 +25.3 85 +41 +41 опасность
перегрева
1011.8 1011.5 +33.4
15 17.04 штиль 0 6000 м 4/3 450 м
[Cu hum As trans Ci fib]
+26.6 +24.4 88 +37 +37 очень
душно
1012.6 1012.3
18 17.04 штиль 0 6000 м 4/3 450 м
[Cu hum As trans Ci fib]
+24.4 +23.3 94 +33 +33 очень
душно
1010.9 1010.5
21 17.04 штиль 0 5000 м мгла 4/3 450 м
[Cu hum As trans Ci fib]
+23.6 +22.8 95 +31 +31 очень
душно
1011.0 1010.7
00 18.04 штиль 0 10 км 3/3 450 м
[Cu hum Ci fib]
+25.4 +23.7 90 +35 +38 очень
душно
1012.5 1012.2 +21.2
03 18.04 12 км н/о +31.8 +24.5 65 +44 +52 опасность
перегрева
1012.1 1011.8
06 18.04 Ю 4 10 км 5/4 450 м
[Cu hum As trans Ci fib]
+33.6 +24.1 58 +46 +51 опасность
перегрева
1009.2 1008.9
09 18.04 Ю 4 8000 м 4/4 450 м
[Cu hum Ci fib]
+31.2 +24.3 67 +43 +44 опасность
перегрева
1008.1 1007.8

 

Местоположение метеостанции Бима (Индонезия): широта -8.55 долгота 118.70 высота над уровнем моря 2 м.

В архиве по умолчанию представлена погода в Биме за последнюю неделю. Архивные данные за месяц целиком и за предыдущие месяцы, начиная с января 2011 года, Вы можете получить, выбрав интересующий диапазон дат из раскрывающегося списка и нажав кнопку "Ввод!".


*Определитесь, кто Вы:
робот инопланетянин человек

Внимание! Время в таблицах - всемирное. Для получения местного времени необходимо прибавить поправку, которая равна 8 ч.

Смотрите также архив погоды в соседних городах и на ближайших метеорологических станциях:

Погода в Сумбава-Бесаре (Индонезия) (142 км)
Погода в Рутенге (Индонезия) (193 км)
Погода в Аэропорту Умбу Механг Кунда (Индонезия) (218 км)
Погода в Матараме (Индонезия) (290 км)
Погода в Денпасаре (Индонезия) (390 км)
Погода в Маумере (Индонезия) (391 км)
Погода в Аэропорту Султана Хасануддин (Индонезия) (398 км)
Погода в Уджангпанданге (Индонезия) (398 км)
Погода в Сабу (Индонезия) (406 км)
Погода в Ларантуке (Индонезия) (471 км)

Пояснения к столбцам:

Ветер - указаны скорость ветра в м/с - средняя за 10 мин, порывы в срок и между сроками (в фигурных скобках) и направление, откуда дует ветер: С - северный, СВ - северо-восточный, В - восточный, ЮВ - юго-восточный, Ю - южный, ЮЗ - юго-западный, З - западный, СЗ - северо-западный.
Видимость - горизонтальная дальность видимости в метрах или километрах. При видимости от 1 до 10 км при отсутствии осадков обычно наблюдается дымка, при ухудшении видимости до 1 км и менее - туман. В сухую погоду видимость может ухудшаться дымом, пылью или мглою.
Явления - указаны атмосферные явления, наблюдавшиеся в срок или в последний час перед сроком; фигурными скобками обозначены явления, наблюдавшиеся между сроками (за 1-3 часа до срока); квадратными скобками обозначены град или гололедные отложения с указанием их диаметра в мм.
Облачность - указаны через наклонную черту общая и нижняя облачность в баллах и высота нижней границы облаков в метрах; квадратными скобками обозначены формы облаков: Ci - перистые, Cs - перисто-слоистые, Cc - перисто-кучевые, Ac - высококучевые, As - высокослоистые, Sc - слоисто-кучевые, Ns - слоисто-дождевые, Cu - кучевые, Cb - кучево-дождевые. Подробнее классификацию облаков см. в Атласе облаков (PDF).
T - Температура воздуха - температура, измеренная на высоте 2 м над землей.
Td - Температура точки росы - температура, при понижении до которой содержащийся в воздухе водяной пар достигнет насыщения.
f - Относительная влажность воздуха - влажноcть воздуха, измеренная на высоте 2 м над землей.
Te - Эффективная температура - температура, которую ощущает одетый по сезону человек в тени. Характеристика душности погоды. При расчете учитывается влияние влажности воздуха и скорости ветра на теплоощущения человека.
Tes - Эффективная температура на солнце - температура, которую ощущает человек, с поправкой на солнечный нагрев. Характеристика знойности погоды. Зависит от высоты солнца над горизонтом, облачности и скорости ветра. Ночью, в пасмурную погоду, а также при ветре 12 м/с и более поправка равна нулю.
P - Атмосферное давление - приведенное к уровню моря атмосферное давление.
Po - Атмосферное давление - измеренное на уровне метеостанции атмосферное давление.
Tmin - Минимальная температура - минимум температуры воздуха на высоте 2 м над землей.
Tmax - Максимальная температура - максимум температуры воздуха на высоте 2 м над землей.
R - Количество осадков - Количество выпавших осадков за период времени, мм. При наведении курсора мыши на число - период времени, за который выпало указанное количество осадков.
R24 - Количество осадков - Количество выпавших осадков за 24 часа, мм.
S - Снежный покров - Высота снежного покрова, см. При наведении курсора мыши на число - состояние снежного покрова и степень покрытия местности в баллах.